Location: Newark
(34.6283°N, 36.0776°E)
Time: 15:41:36
(UTC+00:00)

A-11 Canister half - Pass Details

Date: 21 September 2019
Orbit: 1527 x 1682 km, 47.3° (Epoch: 17 October)

Event Time Altitude Azimuth Distance (km) Brightness Sun altitude
Rises 04:04:16 0° 283° (WNW) 4,720 10.9 7.7°
Reaches altitude 10° 04:07:38 10° 292° (WNW) 3,755 10.5 8.4°
Maximum altitude 04:16:23 39° 358° (N) 2,251 10.0 10.2°
Drops below altitude 10° 04:25:25 10° 65° (ENE) 3,869 12.3 12.0°
Sets 04:28:56 0° 73° (ENE) 4,877 12.9 12.8°
